Change the Weather History Date:

Tuesday, January 29, 2013

  Actual Average Record
Temperature  
Mean Temperature 48 °F -  
Max Temperature 55 °F 43 °F 55 °F (2013)
Min Temperature 41 °F 34 °F 19 °F (2006)
Degree Days  
Heating Degree Days 17    
Moisture  
Dew Point 48 °F    
Average Humidity 88    
Maximum Humidity 94    
Minimum Humidity 80    
Precipitation  
Precipitation 0.28 in - - ()
Sea Level Pressure  
Sea Level Pressure 29.76 in    
Wind  
Wind Speed 20 mph ()    
Max Wind Speed 27 mph    
Max Gust Speed 41 mph    
Visibility 4.7 miles    
Events Rain    
Averages and records for this station are not official NWS values.
T = Trace of Precipitation, MM = Missing Value Source: Averaged Metar Reports

Daily Weather History Graph

Daily Weather History Graph

Search for Another Location

Airport or City:

Trip Planner

Search our weather history database for the weather conditions in past years. The results will help you decide how hot, cold, wet, or windy it might be!

Date:

Astronomy

Jan. 29, 2013 Rise Set
Actual Time 8:22 AM CET 5:28 PM CET
Civil Twilight 7:46 AM CET 6:04 PM CET
Nautical Twilight 7:06 AM CET 6:44 PM CET
Astronomical Twilight 6:27 AM CET 7:22 PM CET
Moon 8:32 PM CET (1/29) 8:50 AM CET (1/29)
Length of Visible Light 10h 17m
Length of Day
9h 05m
Waning Gibbous, 95% of the Moon is Illuminated
Jan 29
Waning Gibbous
Feb 3
Last Quarter
Feb 10
New
Feb 17
First Quarter
Feb 25
Full

Hourly Weather History & Observations

Time (CET) Temp. Windchill Dew Point Humidity Pressure Visibility Wind Dir Wind Speed Gust Speed Precip Events Conditions
12:20 AM 46.4 °F 37.9 °F 42.8 °F 87% 29.74 in 6.2 mi SW 25.3 mph - N/A Rain Light Rain
12:50 AM 46.4 °F 37.7 °F 42.8 °F 87% 29.74 in 3.7 mi SW 26.5 mph - N/A Rain Light Rain
1:00 AM 47 °F - 43 °F 81% 29.75 in 4 mi SW 26.8 mph - - Rain Light Rain
1:20 AM 46.4 °F 39.0 °F 42.8 °F 87% 29.74 in 3.7 mi SSW 19.6 mph - N/A Rain Light Rain
1:50 AM 46.4 °F 39.0 °F 44.6 °F 93% 29.74 in 2.5 mi SW 19.6 mph 32.2 mph N/A Rain Light Rain
2:20 AM 48.2 °F - 44.6 °F 87% 29.77 in 2.2 mi SW 19.6 mph - N/A Rain Rain
2:50 AM 48.2 °F - 44.6 °F 87% 29.74 in 6.2 mi SW 21.9 mph - N/A Rain Light Rain
3:20 AM 50.0 °F - 46.4 °F 87% 29.74 in 6.2 mi SW 21.9 mph 33.4 mph N/A   Mostly Cloudy
3:50 AM 50.0 °F - 46.4 °F 87% 29.74 in 6.2 mi SW 23.0 mph - N/A   Mostly Cloudy
4:00 AM 49 °F - 45 °F 83% 29.76 in 12 mi SW 22.4 mph - -   Mostly Cloudy
4:20 AM 50.0 °F - 46.4 °F 87% 29.74 in 6.2 mi SW 25.3 mph - N/A   Mostly Cloudy
4:50 AM 48.2 °F - 46.4 °F 93% 29.74 in 1.9 mi SW 18.4 mph - N/A Rain Light Rain
5:20 AM 48.2 °F - 46.4 °F 93% 29.74 in 2.2 mi SW 19.6 mph - N/A Rain Light Rain
5:50 AM 48.2 °F - 46.4 °F 93% 29.74 in 2.2 mi SW 15.0 mph - N/A Rain Light Rain
6:20 AM 48.2 °F - 46.4 °F 93% 29.74 in 2.2 mi SW 17.3 mph - N/A Rain Light Rain
6:50 AM 50.0 °F - 46.4 °F 87% 29.74 in 3.7 mi SW 19.6 mph - N/A Rain Light Rain
7:00 AM 50 °F - 47 °F 85% 29.76 in 4 mi SW 20.1 mph - - Rain Light Rain
7:20 AM 50.0 °F - 46.4 °F 87% 29.74 in 3.7 mi SW 19.6 mph - N/A Rain Light Rain
7:50 AM 50.0 °F - 46.4 °F 87% 29.74 in 3.7 mi SW 19.6 mph - N/A Rain Light Rain
8:20 AM 50.0 °F - 46.4 °F 87% 29.74 in 2.2 mi SW 20.7 mph - N/A Rain Light Rain
8:50 AM 50.0 °F - 48.2 °F 94% 29.77 in 2.2 mi SW 20.7 mph - N/A Rain Light Rain
9:20 AM 50.0 °F - 46.4 °F 87% 29.77 in 2.2 mi SW 18.4 mph - N/A Rain Light Rain
9:50 AM 50.0 °F - 48.2 °F 94% 29.77 in 1.9 mi SW 19.6 mph - N/A Rain Light Rain
10:00 AM 50 °F - 47 °F 87% 29.78 in 2 mi SW 20.1 mph - - Rain Light Rain
10:20 AM 50.0 °F - 48.2 °F 94% 29.77 in 2.5 mi SW 19.6 mph - N/A Rain Light Rain
10:50 AM 50.0 °F - 48.2 °F 94% 29.77 in 4.3 mi SW 20.7 mph - N/A Rain Light Rain
11:20 AM 50.0 °F - 48.2 °F 94% 29.77 in 5.6 mi SW 20.7 mph - N/A Rain Light Rain
11:50 AM 50.0 °F - 48.2 °F 94% 29.77 in 4.3 mi SW 20.7 mph - N/A Rain Light Rain
12:20 PM 51.8 °F - 48.2 °F 88% 29.77 in 3.1 mi SW 18.4 mph - N/A Rain Rain
12:50 PM 51.8 °F - 48.2 °F 88% 29.77 in 3.7 mi SW 20.7 mph - N/A Rain Light Rain
1:00 PM 51 °F - 49 °F 90% 29.79 in 4 mi SW 20.1 mph - - Rain Light Rain
1:20 PM 51.8 °F - 48.2 °F 88% 29.77 in 3.7 mi SW 20.7 mph - N/A Rain Light Rain
1:50 PM 51.8 °F - 50.0 °F 94% 29.77 in 3.7 mi SW 23.0 mph - N/A Rain Light Rain
2:20 PM 51.8 °F - 50.0 °F 94% 29.77 in 3.1 mi SW 23.0 mph - N/A Rain Light Rain
2:50 PM 51.8 °F - 50.0 °F 94% 29.77 in 4.3 mi SW 21.9 mph 34.5 mph N/A Rain Light Rain
3:20 PM 51.8 °F - 50.0 °F 94% 29.77 in 4.3 mi SW 23.0 mph - N/A Rain Rain
3:50 PM 53.6 °F - 48.2 °F 82% 29.77 in 6.2 mi SW 25.3 mph 38.0 mph N/A   Mostly Cloudy
4:00 PM 53 °F - 49 °F 80% 29.79 in 9 mi SW 24.6 mph - - Rain Light Rain
4:20 PM 51.8 °F - 48.2 °F 88% 29.77 in 3.7 mi SW 23.0 mph - N/A Rain Light Rain
4:50 PM 51.8 °F - 48.2 °F 88% 29.77 in 6.2 mi SW 23.0 mph 35.7 mph N/A Rain Light Rain
5:20 PM 51.8 °F - 48.2 °F 88% 29.77 in 6.2 mi SW 23.0 mph 34.5 mph N/A Rain Light Rain
5:50 PM 51.8 °F - 50.0 °F 94% 29.77 in 6.2 mi SW 23.0 mph - N/A   Mostly Cloudy
6:20 PM 51.8 °F - 50.0 °F 94% 29.77 in 6.2 mi SW 19.6 mph - N/A   Mostly Cloudy
6:50 PM 53.6 °F - 50.0 °F 88% 29.80 in 6.2 mi SW 21.9 mph - N/A   Mostly Cloudy
7:00 PM 53 °F - 50 °F 86% 29.81 in 12 mi SW 22.4 mph - -   Partly Cloudy
7:20 PM 53.6 °F - 50.0 °F 88% 29.80 in 2.8 mi SW 18.4 mph - N/A Rain Rain
7:50 PM 53.6 °F - 50.0 °F 88% 29.80 in 3.1 mi SW 17.3 mph - N/A Rain Light Rain
8:20 PM 53.6 °F - 50.0 °F 88% 29.80 in 4.3 mi SW 20.7 mph - N/A Rain Light Rain
8:50 PM 53.6 °F - 50.0 °F 88% 29.77 in 6.2 mi SW 23.0 mph - N/A   Drizzle
9:20 PM 55.4 °F - 50.0 °F 82% 29.77 in 6.2 mi SW 21.9 mph - N/A   Mostly Cloudy
9:50 PM 55.4 °F - 50.0 °F 82% 29.77 in 6.2 mi SW 20.7 mph 38.0 mph N/A   Mostly Cloudy
10:00 PM 55 °F - 51 °F 80% 29.79 in 11 mi SW 20.1 mph - - Rain Light Drizzle
10:20 PM 55.4 °F - 51.8 °F 88% 29.77 in 6.2 mi SW 21.9 mph - N/A   Mostly Cloudy
10:50 PM 55.4 °F - 50.0 °F 82% 29.77 in 5.0 mi SW 25.3 mph 38.0 mph N/A Rain Light Rain
11:20 PM 55.4 °F - 50.0 °F 82% 29.77 in 6.2 mi SW 24.2 mph 38.0 mph N/A   Light Drizzle
11:50 PM 55.4 °F - 50.0 °F 82% 29.77 in 6.2 mi SW 24.2 mph 41.4 mph N/A   Mostly Cloudy